マスター彗星

C/2021 K2 ( MASTER )

English version
Home page
Updated on September 11, 2022

---------------------------------------------------------------------

・ プロフィール

発見日 2021年5月22日
発見光度 18.7等
発見者 Mobile Astronomical System of the Telescope-Robots (MASTER) auto-detection system (South African Astronomical Observatory)

・ 軌道要素

Epoch 2022 Jan. 21.0 TT = JDT 2459600.5
T 2021 Sept.  9.26060 TT                                Rudenko
q   5.4671148            (2000.0)            P               Q
z  -0.0002151      Peri.  343.33413     +0.25591641     -0.11530914
 +/-0.0000048      Node   282.24526     -0.73640374     -0.66647431
e   1.0011757      Incl.  100.84426     -0.62627177     +0.73655671
From 80 observations 2021 May 10-2022 Apr. 2, mean residual 0".5.

・ 光度変化

        m1 = 7.5 + 5 logΔ + 10.0 log r

---------------------------------------------------------------------

軌道要素はM.P.E.C. 2022-G109に掲載されたものです。
光度グラフはComet for Windowsで作成したものです。

---------------------------------------------------------------------

Copyright(C) Seiichi Yoshida (comet@aerith.net). All rights reserved.